Weather History for Iowa Falls, IA

Change the Weather History Date:

Friday, October 26, 2012

  Actual Average Record
Temperature  
Mean Temperature 35 °F -  
Max Temperature 41 °F 61 °F 81 °F (1955)
Min Temperature 30 °F 36 °F 18 °F (1981)
Degree Days  
Heating Degree Days 30    
Moisture  
Dew Point 26 °F    
Average Humidity 69    
Maximum Humidity 83    
Minimum Humidity 54    
Precipitation  
Precipitation 0.00 in - - ()
Sea Level Pressure  
Sea Level Pressure 30.37 in    
Wind  
Wind Speed 11 mph (WNW)    
Max Wind Speed 20 mph    
Max Gust Speed 24 mph    
Visibility 10 miles    
Events      
Averages and records for this station are not official NWS values.
T = Trace of Precipitation, MM = Missing Value Source: NWS Daily Summary

Daily Weather History Graph

Daily Weather History Graph

Search for Another Location

Airport:

Trip Planner

Search our weather history database for the weather conditions in past years. The results will help you decide how hot, cold, wet, or windy it might be!

Date:

Astronomy

Oct. 26, 2012 Rise Set
Actual Time 7:39 AM CDT 6:13 PM CDT
Civil Twilight 7:10 AM CDT 6:42 PM CDT
Nautical Twilight 6:37 AM CDT 7:15 PM CDT
Astronomical Twilight 6:05 AM CDT 7:47 PM CDT
Moon 4:32 PM CDT (10/26) 4:33 AM CDT (10/26)
Length of Visible Light 11h 31m
Length of Day
10h 33m
Waxing Gibbous, 91% of the Moon is Illuminated
Oct 26
Waxing Gibbous
Oct 29
Full
Nov 6
Last Quarter
Nov 13
New
Nov 20
First Quarter

Hourly Weather History & Observations

Time (CDT) Temp. Windchill Dew Point Humidity Pressure Visibility Wind Dir Wind Speed Gust Speed Precip Events Conditions
12:15 AM 35.1 °F 25.9 °F 26.6 °F 71% 30.25 in 10.0 mi NW 13.8 mph - N/A   Overcast
12:35 AM 34.5 °F 25.7 °F 26.6 °F 73% 30.26 in 10.0 mi NW 12.7 mph 17.3 mph N/A   Mostly Cloudy
12:55 AM 34.5 °F 26.2 °F 26.4 °F 72% 30.26 in 10.0 mi NW 11.5 mph - N/A   Overcast
1:35 AM 34.2 °F 25.7 °F 26.6 °F 74% 30.26 in 10.0 mi NW 11.5 mph - N/A   Overcast
1:55 AM 33.8 °F 26.4 °F 26.4 °F 74% 30.27 in 10.0 mi NW 9.2 mph - N/A   Mostly Cloudy
2:15 AM 33.1 °F 24.9 °F 26.6 °F 77% 30.26 in 10.0 mi NW 10.4 mph - N/A   Scattered Clouds
2:35 AM 32.4 °F 25.3 °F 26.2 °F 78% 30.27 in 10.0 mi NW 8.1 mph - N/A   Clear
2:55 AM 32.0 °F 24.2 °F 26.1 °F 79% 30.27 in 10.0 mi NW 9.2 mph - N/A   Clear
3:15 AM 31.5 °F 24.9 °F 26.2 °F 81% 30.27 in 10.0 mi WNW 6.9 mph - N/A   Mostly Cloudy
3:35 AM 32.0 °F 26.4 °F 27.3 °F 83% 30.28 in 10.0 mi NW 5.8 mph - N/A   Overcast
3:55 AM 32.9 °F 26.7 °F 27.7 °F 81% 30.29 in 10.0 mi WNW 6.9 mph - N/A   Mostly Cloudy
4:15 AM 32.0 °F 24.2 °F 26.6 °F 80% 30.29 in 10.0 mi NW 9.2 mph - N/A   Scattered Clouds
4:35 AM 32.0 °F 23.6 °F 26.6 °F 80% 30.29 in 10.0 mi NW 10.4 mph - N/A   Clear
5:15 AM 32.0 °F 23.6 °F 25.3 °F 76% 30.31 in 10.0 mi WNW 10.4 mph - N/A   Clear
5:35 AM 32.0 °F 24.2 °F 25.0 °F 75% 30.33 in 10.0 mi WNW 9.2 mph - N/A   Clear
5:55 AM 31.8 °F 25.4 °F 25.7 °F 78% 30.35 in 10.0 mi West 6.9 mph - N/A   Clear
6:15 AM 30.2 °F 23.4 °F 25.7 °F 83% 30.36 in 10.0 mi West 6.9 mph - N/A   Clear
6:35 AM 31.5 °F 22.9 °F 26.4 °F 82% 30.37 in 10.0 mi West 10.4 mph - N/A   Clear
6:55 AM 31.6 °F 23.7 °F 26.1 °F 80% 30.37 in 10.0 mi WNW 9.2 mph - N/A   Clear
7:35 AM 31.5 °F 22.9 °F 25.2 °F 78% 30.38 in 10.0 mi WNW 10.4 mph - N/A   Clear
7:55 AM 31.5 °F 23.5 °F 25.2 °F 78% 30.39 in 7.0 mi WNW 9.2 mph - N/A   Clear
8:15 AM 31.6 °F 23.7 °F 25.5 °F 78% 30.39 in 10.0 mi WNW 9.2 mph - N/A   Clear
8:35 AM 32.7 °F 23.9 °F 26.2 °F 77% 30.40 in 10.0 mi WNW 11.5 mph - N/A   Clear
9:15 AM 35.1 °F 27.4 °F 28.2 °F 76% 30.41 in 10.0 mi WNW 10.4 mph - N/A   Clear
9:35 AM 36.1 °F 26.9 °F 27.5 °F 71% 30.42 in 10.0 mi WNW 15.0 mph - N/A   Clear
9:55 AM 37.2 °F 28.7 °F 27.5 °F 68% 30.42 in 10.0 mi NW 13.8 mph - N/A   Clear
10:15 AM 37.9 °F 28.9 °F 27.0 °F 65% 30.43 in 10.0 mi NW 16.1 mph - N/A   Clear
10:35 AM 38.7 °F 30.1 °F 27.1 °F 63% 30.43 in 10.0 mi NW 15.0 mph 21.9 mph N/A   Clear
10:55 AM 37.9 °F 27.9 °F 26.2 °F 63% 30.43 in 10.0 mi NW 19.6 mph 23.0 mph N/A   Mostly Cloudy
11:15 AM 39.4 °F 30.1 °F 25.3 °F 57% 30.42 in 10.0 mi NNW 18.4 mph - N/A   Mostly Cloudy
11:35 AM 38.5 °F 29.9 °F 24.6 °F 58% 30.43 in 10.0 mi NNW 15.0 mph 24.2 mph N/A   Mostly Cloudy
12:15 PM 38.8 °F 31.2 °F 24.6 °F 57% 30.43 in 10.0 mi WNW 12.7 mph 17.3 mph N/A   Overcast
12:35 PM 39.4 °F 31.4 °F 24.8 °F 56% 30.43 in 10.0 mi NW 13.8 mph 18.4 mph N/A   Overcast
12:55 PM 39.4 °F 32.3 °F 24.8 °F 56% 30.42 in 10.0 mi NW 11.5 mph 17.3 mph N/A   Overcast
1:15 PM 39.6 °F 31.7 °F 25.9 °F 58% 30.42 in 10.0 mi NW 13.8 mph - N/A   Overcast
1:35 PM 40.1 °F 32.0 °F 25.5 °F 56% 30.41 in 10.0 mi WNW 15.0 mph 20.7 mph N/A   Overcast
1:55 PM 40.3 °F 31.9 °F 25.7 °F 56% 30.41 in 10.0 mi NW 16.1 mph - N/A   Overcast
2:15 PM 40.3 °F 31.9 °F 25.0 °F 54% 30.40 in 10.0 mi WNW 16.1 mph 19.6 mph N/A   Overcast
2:35 PM 39.9 °F 32.1 °F 24.8 °F 55% 30.40 in 10.0 mi WNW 13.8 mph 20.7 mph N/A   Overcast
2:55 PM 40.1 °F 32.7 °F 25.5 °F 56% 30.40 in 10.0 mi NW 12.7 mph 18.4 mph N/A   Overcast
3:15 PM 39.7 °F 31.2 °F 25.0 °F 56% 30.40 in 10.0 mi WNW 16.1 mph 21.9 mph N/A   Overcast
3:35 PM 39.6 °F 31.3 °F 26.1 °F 58% 30.40 in 10.0 mi WNW 15.0 mph 20.7 mph N/A   Overcast
3:55 PM 39.2 °F 31.6 °F 25.3 °F 58% 30.40 in 10.0 mi NW 12.7 mph - N/A   Overcast
4:15 PM 38.7 °F 30.5 °F 25.7 °F 60% 30.40 in 10.0 mi WNW 13.8 mph - N/A   Overcast
4:35 PM 38.5 °F 30.7 °F 25.3 °F 59% 30.40 in 10.0 mi NW 12.7 mph 18.4 mph N/A   Overcast
4:55 PM 38.3 °F 30.9 °F 25.0 °F 59% 30.39 in 10.0 mi WNW 11.5 mph - N/A   Overcast
5:15 PM 38.3 °F 30.5 °F 25.3 °F 60% 30.39 in 10.0 mi WNW 12.7 mph - N/A   Overcast
5:35 PM 37.8 °F 30.2 °F 25.0 °F 60% 30.39 in 10.0 mi WNW 11.5 mph - N/A   Overcast
5:55 PM 37.6 °F 30.0 °F 26.1 °F 63% 30.39 in 10.0 mi NW 11.5 mph - N/A   Overcast
6:15 PM 37.2 °F 29.6 °F 25.5 °F 63% 30.39 in 10.0 mi WNW 11.5 mph - N/A   Overcast
6:35 PM 37.0 °F 28.9 °F 25.9 °F 64% 30.39 in 10.0 mi NW 12.7 mph - N/A   Overcast
6:55 PM 36.9 °F 29.6 °F 25.5 °F 64% 30.39 in 10.0 mi NW 10.4 mph - N/A   Overcast
7:15 PM 36.5 °F 28.7 °F 25.3 °F 64% 30.39 in 10.0 mi WNW 11.5 mph - N/A   Overcast
7:35 PM 36.1 °F 29.3 °F 25.2 °F 64% 30.39 in 10.0 mi NW 9.2 mph - N/A   Overcast
7:55 PM 36.0 °F 30.3 °F 25.5 °F 66% 30.40 in 10.0 mi NW 6.9 mph - N/A   Overcast
8:15 PM 36.1 °F 30.6 °F 25.9 °F 66% 30.40 in 10.0 mi NW 6.9 mph - N/A   Overcast
8:35 PM 36.0 °F 29.6 °F 26.2 °F 68% 30.40 in 10.0 mi NW 8.1 mph - N/A   Overcast
8:55 PM 35.8 °F 30.9 °F 26.8 °F 70% 30.39 in 10.0 mi NW 5.8 mph - N/A   Overcast
9:15 PM 35.6 °F 29.9 °F 26.8 °F 70% 30.40 in 10.0 mi NW 6.9 mph - N/A   Overcast
9:35 PM 35.6 °F 31.7 °F 26.8 °F 70% 30.39 in 10.0 mi NW 4.6 mph - N/A   Overcast
9:55 PM 34.7 °F 30.6 °F 26.4 °F 72% 30.40 in 10.0 mi NW 4.6 mph - N/A   Overcast
10:15 PM 34.7 °F 30.6 °F 27.3 °F 74% 30.40 in 10.0 mi West 4.6 mph - N/A   Overcast
10:35 PM 34.9 °F 32.0 °F 27.5 °F 74% 30.40 in 10.0 mi WNW 3.5 mph - N/A   Overcast
10:55 PM 35.1 °F 32.2 °F 28.0 °F 76% 30.40 in 10.0 mi West 3.5 mph - N/A   Overcast
11:35 PM 35.1 °F 32.2 °F 28.6 °F 77% 30.39 in 10.0 mi West 3.5 mph - N/A   Overcast
11:55 PM 35.1 °F - 29.8 °F 81% 30.39 in 10.0 mi Calm Calm - N/A   Overcast